Terminal Aerodrome Forecast
Issued by NWS Buffalo, NY

Home | Current Version | Previous Version | Text Only | Print | Product List | Glossary On
Versions: 1 2 3 4 5 6 7 8 9 10 11 12 13 14 15 16 17 18 19 20 21 22 23 24 25
000
FTUS41 KBUF 190809 AAA
TAFROC
TAF AMD
KROC 190809Z 1908/2006 30017G27KT 6SM -RA BR BKN007
     FM191000 30021G32KT 3SM -RASN BKN007
     FM191300 30021G34KT P6SM VCSH SCT007 OVC015
     FM191600 30019G34KT P6SM BKN025
     FM200000 29014G22KT P6SM BKN035
     FM200500 29015KT P6SM BKN035=

USA.gov is the U.S. government's official web portal to all federal, state and local government web resources and services.